Location: São Paulo
(23.5507°S, 46.6334°W)
Time: 10:26:42
(UTC-03:00)

Explorer 7 - Pass Details

Date: 24 February 2026
Orbit: 430 x 541 km, 50.2° (Epoch: 11 March)

Event Time Altitude Azimuth Distance (km) Brightness Sun altitude
Rises 22:27:18 0° 325° (NW) 2,672 - -47.3°
Reaches altitude 10° 22:29:31 10° 328° (NNW) 1,795 - -47.7°
Maximum altitude 22:33:35 66° 49° (NE) 599 - -48.3°
Drops below altitude 10° 22:37:43 10° 132° (SE) 1,819 - -48.9°
Sets 22:39:59 0° 134° (SE) 2,711 - -49.2°
